Weather History for Providence, RI

Change the Weather History Date:

Saturday, December 7, 2013

  Actual Average Record
Temperature  
Mean Temperature 36 °F 37 °F  
Max Temperature 41 °F 45 °F 77 °F (1998)
Min Temperature 30 °F 29 °F 4 °F (1906)
Degree Days  
Heating Degree Days 29 28  
Month to date heating degree days 165 187  
Since 1 July heating degree days 1268 1262  
Cooling Degree Days 0 0  
Month to date cooling degree days 0 0  
Year to date cooling degree days 892 744  
Moisture  
Dew Point 29 °F    
Average Humidity 74    
Maximum Humidity 100    
Minimum Humidity 47    
Precipitation  
Precipitation 0.18 in 0.15 in 1.58 in (1908)
Month to date precipitation 1.28 1.07  
Year to date precipitation 41.92 44.03  
Snow  
Snow 0.00 in 0.30 in 4.00 in (2003)
Month to date snowfall 0.0 1.5  
Since 1 July snowfall 0.1 3.0  
Snow Depth 0.00 in    
Sea Level Pressure  
Sea Level Pressure 30.23 in    
Wind  
Wind Speed 8 mph (NW)    
Max Wind Speed 18 mph    
Max Gust Speed 26 mph    
Visibility 9 miles    
Events Rain    
T = Trace of Precipitation, MM = Missing Value Source: NWS Daily Summary

Daily Weather History Graph

Daily Weather History Graph

Search for Another Location

Airport:

Trip Planner

Search our weather history database for the weather conditions in past years. The results will help you decide how hot, cold, wet, or windy it might be!

Date:

Astronomy

Dec. 07, 2013 Rise Set
Actual Time 6:59 AM EST 4:15 PM EST
Civil Twilight 6:28 AM EST 4:46 PM EST
Nautical Twilight 5:53 AM EST 5:21 PM EST
Astronomical Twilight 5:19 AM EST 5:54 PM EST
Moon 10:39 AM EST (12/7) 9:56 PM EST (12/7)
Length of Visible Light 10h 18m
Length of Day
9h 15m
Waxing Crescent, 29% of the Moon is Illuminated
Dec 7
Waxing Crescent
Dec 9
First Quarter
Dec 17
Full
Dec 25
Last Quarter
Jan 1
New

Hourly Weather History & Observations

Time (EST) Temp. Windchill Dew Point Humidity Pressure Visibility Wind Dir Wind Speed Gust Speed Precip Events Conditions
12:51 AM 37.0 °F 29.8 °F 35.1 °F 93% 30.11 in 4.0 mi North 10.4 mph - 0.10 in Rain Heavy Rain
1:29 AM 35.6 °F 27.1 °F 35.6 °F 100% 30.09 in 7.0 mi North 12.7 mph - 0.08 in Rain Light Rain
1:51 AM 36.0 °F 29.0 °F 34.0 °F 93% 30.09 in 8.0 mi North 9.2 mph - 0.09 in Rain Light Rain
1:59 AM 35.6 °F 27.5 °F 33.8 °F 93% 30.08 in 9.0 mi North 11.5 mph - 0.00 in Rain Light Rain
2:10 AM 35.6 °F 28.6 °F 33.8 °F 93% 30.08 in 10.0 mi North 9.2 mph - 0.00 in Rain Light Rain
2:51 AM 36.0 °F 29.0 °F 33.1 °F 89% 30.08 in 10.0 mi North 9.2 mph - 0.00 in   Overcast
3:30 AM 35.6 °F 27.5 °F 33.8 °F 93% 30.13 in 10.0 mi NNW 11.5 mph - N/A   Overcast
3:51 AM 35.1 °F 28.6 °F 34.0 °F 96% 30.14 in 4.0 mi North 8.1 mph - N/A   Overcast
4:21 AM 35.6 °F 29.2 °F 33.8 °F 93% 30.13 in 4.0 mi North 8.1 mph - 0.00 in   Overcast
4:51 AM 35.1 °F 29.3 °F 35.1 °F 100% 30.14 in 6.0 mi North 6.9 mph - 0.00 in   Overcast
5:31 AM 35.6 °F 30.7 °F 33.8 °F 93% 30.15 in 8.0 mi North 5.8 mph - N/A   Overcast
5:38 AM 35.6 °F 29.9 °F 33.8 °F 93% 30.15 in 9.0 mi NNW 6.9 mph - N/A   Overcast
5:51 AM 36.0 °F 30.3 °F 34.0 °F 93% 30.17 in 10.0 mi NNW 6.9 mph - N/A   Overcast
6:42 AM 35.6 °F 29.9 °F 33.8 °F 93% 30.18 in 10.0 mi NNW 6.9 mph - N/A   Overcast
6:51 AM 35.1 °F 29.3 °F 33.1 °F 92% 30.18 in 10.0 mi NNW 6.9 mph - N/A   Overcast
7:46 AM 35.6 °F 30.7 °F 33.8 °F 93% 30.20 in 10.0 mi NNW 5.8 mph - N/A   Overcast
7:51 AM 36.0 °F 31.1 °F 33.1 °F 89% 30.20 in 10.0 mi NW 5.8 mph - N/A   Overcast
8:51 AM 36.0 °F 31.1 °F 32.0 °F 86% 30.23 in 10.0 mi NW 5.8 mph - N/A   Mostly Cloudy
9:51 AM 37.9 °F 31.5 °F 30.9 °F 76% 30.24 in 10.0 mi NW 9.2 mph - N/A   Mostly Cloudy
10:51 AM 39.9 °F 32.9 °F 30.0 °F 68% 30.24 in 10.0 mi NW 11.5 mph - N/A   Mostly Cloudy
11:03 AM 39.2 °F 31.2 °F 30.2 °F 70% 30.23 in 10.0 mi NW 13.8 mph - N/A   Mostly Cloudy
11:51 AM 39.0 °F 31.8 °F 28.0 °F 65% 30.23 in 10.0 mi NW 11.5 mph - N/A   Mostly Cloudy
12:10 PM 39.2 °F 31.6 °F 26.6 °F 61% 30.24 in 10.0 mi NNW 12.7 mph - N/A   Scattered Clouds
12:17 PM 39.2 °F 31.2 °F 26.6 °F 61% 30.24 in 10.0 mi NW 13.8 mph - N/A   Mostly Cloudy
12:26 PM 39.2 °F 32.0 °F 26.6 °F 61% 30.24 in 10.0 mi WNW 11.5 mph 19.6 mph N/A   Mostly Cloudy
12:51 PM 39.0 °F 31.0 °F 25.0 °F 57% 30.24 in 10.0 mi WNW 13.8 mph - N/A   Mostly Cloudy
1:51 PM 41.0 °F 34.3 °F 24.1 °F 51% 30.24 in 10.0 mi WNW 11.5 mph 17.3 mph N/A   Mostly Cloudy
2:51 PM 39.9 °F 31.8 °F 21.9 °F 49% 30.26 in 10.0 mi NW 15.0 mph 20.7 mph N/A   Scattered Clouds
3:51 PM 37.0 °F 29.3 °F 19.0 °F 48% 30.29 in 10.0 mi NW 11.5 mph 18.4 mph N/A   Scattered Clouds
4:51 PM 36.0 °F 29.6 °F 18.0 °F 48% 30.32 in 10.0 mi WNW 8.1 mph - N/A   Scattered Clouds
5:51 PM 34.0 °F 28.8 °F 19.0 °F 54% 30.35 in 10.0 mi West 5.8 mph - N/A   Scattered Clouds
6:51 PM 32.0 °F 27.5 °F 21.0 °F 64% 30.37 in 10.0 mi West 4.6 mph - N/A   Scattered Clouds
7:51 PM 30.9 °F 25.2 °F 21.0 °F 67% 30.40 in 10.0 mi West 5.8 mph - N/A   Overcast
8:51 PM 32.0 °F 27.5 °F 19.9 °F 61% 30.42 in 10.0 mi WNW 4.6 mph - N/A   Overcast
9:51 PM 30.9 °F 25.2 °F 19.9 °F 64% 30.44 in 10.0 mi WNW 5.8 mph - N/A   Overcast
10:51 PM 30.9 °F 25.2 °F 19.9 °F 64% 30.45 in 10.0 mi WNW 5.8 mph - N/A   Mostly Cloudy
11:51 PM 30.0 °F 24.1 °F 19.0 °F 64% 30.47 in 10.0 mi WNW 5.8 mph - N/A   Mostly Cloudy